Вернуться в каталог

COSMOS 397 DEB *

АктивенLEO
NORAD 19367·DEBRIS·🇷🇺 Russia

Запущен Feb 25, 1971 с Baikonur Cosmodrome

Loading…

Ближайшие Пролёты (ближайшие 24 часа)

TLE

СвежийSource: Space-Track

Эпоха: Sep 14, 2026, 05:17 UTC

1 19367U 71015DS  26257.22024399  .00000232  00000-0  26285-3 0  9996
2 19367  65.7121 168.8334 0161892  35.5698  41.1957 13.82538740935102

Отслеживайте COSMOS 397 DEB * в реальном времени с AllMySat

Download on the App Store